COSMOS 990

Satellite information

Favourite Embed

Satellite Type and Status

PAYLOADIN ORBIT

Key statistics

Satellite COSMOS 990 at a glance.

Uptime

17245

Days in orbit

Revolutions

≈ 14.4

Per day

Orbit

LEO

Low Earth Orbit

Inclination

74.0

Latest

Satellite identification and parameters

Extended collection of information and parameters for COSMOS 990.

Object identification

Identified? True

Debris? False

Object name: COSMOS 990

International designator: 1978-019A

Object number (NORAD): 10676

Object ID (CCSDS): 10676

Country: COMMONWEALTH OF INDEPENDENT STATES (CIS)

Current information (Y/N): Y

RCS size: LARGE

Orbital parameters

Period: 100.204 minutes

Inclination: 74.0385 deg

SMA: 7146.35 km

Apoapsis: 780.75 km

Periapsis: 755.68 km

RAAN: 180.0169 deg

Eccentricy: 0.0017541

Argument of periapsis: 254.0468 deg

Mean anomaly: 105.8753 deg

Mean motion: 14.37064745 rev/day

Mean motion (dot): 0.00000207 rev/day2

B* drag term: 0.000078672 1/REarth

Two-line elements (TLE)

Creation date: May 6, 2025, 3:54 a.m.

Reference frame: TEME

Reference center: EARTH

Epoch: May 5, 2025, 9:29 p.m. UTC

TLE line 0: 0 COSMOS 990

TLE line 1: 1 10676U 78019A 25125.89518824 .00000207 00000-0 78672-4 0 9998

TLE line 2: 2 10676 74.0385 180.0169 0017541 254.0468 105.8753 14.37064745471519

Live tracking on map

Real-time ground track for satellite COSMOS 990.

In-orbit conjunctions

A list of the most updated potential collisions computed for object COSMOS 990.

Target Orbit TCA Probability of collision Miss distance Type
DMSP 5D-2 F13 DEB SSO 2025-04-11 01:26:28 0.0004159967 456.0 (m) DEBRIS
IRIDIUM 33 DEB LEO 2025-04-10 22:51:34 0.0001060139 152.0 (m) DEBRIS
CZ-4 DEB SSO 2025-03-20 15:42:30 0.0002529833 244.0 (m) DEBRIS
THORAD AGENA D DEB LEO 2025-03-17 00:04:13 0.0004939337 349.0 (m) DEBRIS
FENGYUN 1C DEB SSO 2025-02-13 02:49:51 0.0001726598 382.0 (m) DEBRIS

Associated space launch

Military communications satellite

COSMOS 990 was lifted into orbit during the mission ‘Kosmos-3M | Strela-2M 17’, on board a Kosmos-3M space rocket.

The launch took place on Feb. 17, 1978, 4:33 p.m. from 132/2.

For more information about the launch, click the button.

Launch to space Kosmos-3M | Strela-2M 17
Kosmos-3M | Strela-2M 17

Agency: N/A

Status: Launch Successful

Launch date: Feb. 17, 1978, 4:33 p.m. UTC

Rocket: Kosmos-3M

Launch pad: 132/2

Location: Plesetsk Cosmodrome, Russian Federation

...

Latest news about this satellite

There are no fresh news available about this satellite. Check back as we update our databases every day.


Newsletter sign-up

Weekly statistics, charts and insights to help you stay on top of the space industry.